Tracking 30310 objects as of 25-Apr-2025
HD Live streaming from Space Station
objects crossing your sky now

ION SCV-010

Track ION SCV-010 now!
10-day predictions
ION SCV-010 is classified as:


NORAD ID: 56192
Int'l Code: 2023-054Q
Perigee: 497.5 km
Apogee: 518.0 km
Inclination: 97.4 °
Period: 94.6 minutes
Semi major axis: 6878 km
RCS: Unknown
Launch date: April 15, 2023
Source: Italy (IT)
Launch site: AIR FORCE WESTERN TEST RANGE (AFWTR)

Uplink (MHz):
Downlink (MHz): 401.415
Beacon (MHz):
Mode: 1200bps FSK
Call sign:
Status: Active

Your satellite tracking list
Your tracking list is empty




NASA's NSSDC Master Catalog

Two Line Element Set (TLE):
1 56192U 23054Q   25114.22105075  .00007543  00000-0  33501-3 0  9996
2 56192  97.4307   4.2671 0014902 224.9148 135.0883 15.21731885112408
Source of the keplerian elements: AFSPC